FDX1461 KJFK-ELLX

Flight info

Callsign FDX1461
Flight time 2h 26m
Altitude 33000
Route BETTE DCT ACK DCT WHALE N93B SUPRY/M083F340 NATU XETBO/N0478F350 DCT EVRIN DCT INFEC DCT JETZI DCT AMFUL DCT CAWZE DCT SIRIC P2 DVR UL9 KONAN DCT KOK UL607 REMBA
Aircraft B77L/H-SDE1E2E3FGHIJ2J3J4J5M1RWXY/LB1D1

Departure

Time 2026-05-05 00:42
Airport John F. Kennedy International Airport (KJFK)

Arrival

Time 2026-05-05 03:08
Airport Luxembourg-Findel International Airport (ELLX)
Time Latitude Longitude Altitude Speed Heading
2026-05-05 00:13 40.66061 -73.78403 25 ft 0 kts 31°
2026-05-05 00:30 40.66046 -73.78415 25 ft 4 kts 39°
2026-05-05 00:31 40.66027 -73.78440 26 ft 4 kts 53°
2026-05-05 00:31 40.66013 -73.78470 26 ft 4 kts 70°
2026-05-05 00:31 40.66007 -73.78504 25 ft 4 kts 85°
2026-05-05 00:31 40.66007 -73.78539 25 ft 4 kts 98°
2026-05-05 00:32 40.66013 -73.78574 25 ft 4 kts 105°
2026-05-05 00:32 40.66018 -73.78601 28 ft 0 kts 101°
2026-05-05 00:35 40.66018 -73.78600 25 ft 1 kts 101°
2026-05-05 00:35 40.65993 -73.78523 25 ft 15 kts 134°
2026-05-05 00:35 40.65899 -73.78528 30 ft 15 kts 215°
2026-05-05 00:35 40.65840 -73.78637 28 ft 15 kts 210°
2026-05-05 00:36 40.65743 -73.78619 26 ft 15 kts 143°
2026-05-05 00:36 40.65674 -73.78517 22 ft 15 kts 123°
2026-05-05 00:36 40.65623 -73.78398 26 ft 15 kts 116°
2026-05-05 00:36 40.65571 -73.78279 30 ft 15 kts 121°
2026-05-05 00:37 40.65519 -73.78160 29 ft 15 kts 116°
2026-05-05 00:37 40.65466 -73.78042 26 ft 15 kts 121°
2026-05-05 00:37 40.65412 -73.77924 26 ft 15 kts 121°
2026-05-05 00:37 40.65359 -73.77806 24 ft 15 kts 121°
2026-05-05 00:38 40.65306 -73.77688 30 ft 15 kts 121°
2026-05-05 00:38 40.65252 -73.77571 27 ft 15 kts 121°
2026-05-05 00:38 40.65198 -73.77454 26 ft 15 kts 121°
2026-05-05 00:38 40.65143 -73.77337 27 ft 15 kts 122°
2026-05-05 00:39 40.65089 -73.77220 30 ft 15 kts 122°
2026-05-05 00:39 40.65034 -73.77104 27 ft 15 kts 122°
2026-05-05 00:39 40.64979 -73.76987 30 ft 15 kts 121°
2026-05-05 00:39 40.64926 -73.76870 26 ft 15 kts 121°
2026-05-05 00:40 40.64892 -73.76744 31 ft 15 kts 81°
2026-05-05 00:40 40.64958 -73.76642 26 ft 15 kts 34°
2026-05-05 00:40 40.65011 -73.76599 28 ft 5 kts 30°
2026-05-05 00:40 40.65040 -73.76576 26 ft 7 kts 30°
2026-05-05 00:41 40.65091 -73.76491 31 ft 14 kts 91°
2026-05-05 00:41 40.65049 -73.76384 27 ft 14 kts 150°
2026-05-05 00:41 40.64964 -73.76407 26 ft 2 kts 211°
2026-05-05 00:41 40.64812 -73.76522 28 ft 59 kts 209°
2026-05-05 00:42 40.64252 -73.76950 26 ft 124 kts 210°
2026-05-05 00:42 40.63335 -73.77624 40 ft 173 kts 207°
2026-05-05 00:42 40.62265 -73.78410 476 ft 179 kts 208°
2026-05-05 00:42 40.61164 -73.79371 687 ft 197 kts 218°
2026-05-05 00:43 40.60026 -73.80190 1384 ft 185 kts 185°
2026-05-05 00:43 40.58792 -73.79747 1732 ft 198 kts 143°
2026-05-05 00:43 40.58049 -73.78112 1766 ft 228 kts 101°
2026-05-05 00:43 40.58087 -73.75935 1940 ft 247 kts 92°
2026-05-05 00:44 40.58090 -73.73596 2255 ft 262 kts 96°
2026-05-05 00:44 40.58026 -73.71146 2756 ft 273 kts 97°
2026-05-05 00:44 40.57953 -73.68594 3218 ft 284 kts 96°
2026-05-05 00:44 40.57886 -73.65972 3864 ft 287 kts 95°
2026-05-05 00:45 40.57818 -73.63341 4575 ft 288 kts 95°
2026-05-05 00:45 40.57751 -73.60697 5238 ft 291 kts 94°
2026-05-05 00:45 40.57682 -73.58024 5883 ft 294 kts 94°
2026-05-05 00:45 40.57610 -73.55336 6541 ft 295 kts 94°
2026-05-05 00:46 40.57533 -73.52639 7177 ft 296 kts 93°
2026-05-05 00:46 40.57451 -73.49909 7767 ft 300 kts 93°
2026-05-05 00:46 40.57371 -73.47159 8396 ft 302 kts 93°
2026-05-05 00:46 40.57288 -73.44385 9001 ft 304 kts 93°
2026-05-05 00:47 40.57205 -73.41596 9588 ft 307 kts 92°
2026-05-05 00:47 40.57119 -73.38771 10096 ft 312 kts 92°
2026-05-05 00:47 40.57029 -73.35861 10390 ft 328 kts 92°
2026-05-05 00:47 40.56933 -73.32780 10556 ft 347 kts 92°
2026-05-05 00:48 40.56832 -73.29514 10723 ft 367 kts 92°
2026-05-05 00:48 40.56724 -73.26112 10903 ft 387 kts 92°
2026-05-05 00:48 40.56607 -73.22532 11350 ft 398 kts 92°
2026-05-05 00:48 40.56487 -73.18854 11939 ft 405 kts 92°
2026-05-05 00:49 40.56367 -73.15132 12703 ft 409 kts 92°
2026-05-05 00:49 40.56245 -73.11390 13470 ft 413 kts 92°
2026-05-05 00:49 40.56122 -73.07602 14168 ft 417 kts 92°
2026-05-05 00:49 40.56079 -73.03776 14835 ft 421 kts 86°
2026-05-05 00:50 40.56418 -72.99938 15482 ft 424 kts 78°
2026-05-05 00:50 40.57109 -72.96156 16119 ft 427 kts 70°
2026-05-05 00:50 40.58065 -72.92439 16730 ft 431 kts 69°
2026-05-05 00:50 40.59048 -72.88695 17319 ft 435 kts 69°
2026-05-05 00:51 40.60042 -72.84912 17914 ft 439 kts 69°
2026-05-05 00:51 40.61040 -72.81086 18507 ft 443 kts 69°
2026-05-05 00:51 40.62038 -72.77234 19107 ft 446 kts 69°
2026-05-05 00:51 40.63037 -72.73346 19709 ft 449 kts 69°
2026-05-05 00:52 40.64025 -72.69477 20264 ft 452 kts 69°
2026-05-05 00:52 40.65032 -72.65522 20789 ft 456 kts 69°
2026-05-05 00:52 40.66038 -72.61553 21323 ft 459 kts 69°
2026-05-05 00:52 40.67050 -72.57558 21875 ft 461 kts 69°
2026-05-05 00:53 40.68069 -72.53534 22401 ft 464 kts 69°
2026-05-05 00:53 40.69098 -72.49464 22883 ft 467 kts 69°
2026-05-05 00:53 40.70127 -72.45388 23399 ft 470 kts 69°
2026-05-05 00:53 40.71159 -72.41287 23882 ft 473 kts 69°
2026-05-05 00:54 40.72183 -72.37212 24347 ft 476 kts 69°
2026-05-05 00:54 40.73239 -72.33003 24817 ft 478 kts 69°
2026-05-05 00:54 40.74271 -72.28881 25287 ft 480 kts 68°
2026-05-05 00:54 40.75317 -72.24690 25740 ft 483 kts 68°
2026-05-05 00:55 40.76366 -72.20484 26165 ft 484 kts 68°
2026-05-05 00:55 40.77421 -72.16248 26551 ft 488 kts 68°
2026-05-05 00:55 40.78483 -72.11985 26941 ft 490 kts 68°
2026-05-05 00:55 40.79549 -72.07694 27364 ft 492 kts 68°
2026-05-05 00:56 40.80614 -72.03398 27765 ft 494 kts 68°
2026-05-05 00:56 40.81685 -71.99067 28148 ft 496 kts 68°
2026-05-05 00:56 40.82753 -71.94739 28551 ft 498 kts 67°
2026-05-05 00:56 40.83827 -71.90384 28917 ft 499 kts 67°
2026-05-05 00:57 40.84901 -71.86017 29232 ft 501 kts 67°
2026-05-05 00:57 40.85977 -71.81632 29534 ft 503 kts 67°
2026-05-05 00:57 40.87058 -71.77221 29833 ft 505 kts 67°
2026-05-05 00:57 40.88141 -71.72793 30247 ft 503 kts 67°
2026-05-05 00:58 40.89209 -71.68409 30696 ft 501 kts 67°
2026-05-05 00:58 40.90277 -71.64021 31044 ft 501 kts 67°
2026-05-05 00:58 40.91345 -71.59627 31318 ft 502 kts 67°
2026-05-05 00:58 40.92414 -71.55229 31644 ft 502 kts 67°
2026-05-05 00:59 40.93477 -71.50841 31972 ft 501 kts 67°
2026-05-05 00:59 40.94538 -71.46455 32294 ft 501 kts 67°
2026-05-05 00:59 40.95599 -71.42057 32597 ft 501 kts 68°
2026-05-05 00:59 40.96658 -71.37664 32855 ft 502 kts 68°
2026-05-05 01:00 40.97722 -71.33245 32918 ft 505 kts 68°
2026-05-05 01:00 40.99848 -71.24388 32962 ft 504 kts 68°
2026-05-05 01:01 41.01949 -71.15570 32967 ft 500 kts 68°
2026-05-05 01:01 41.04025 -71.06838 32976 ft 500 kts 68°
2026-05-05 01:02 41.06109 -70.98057 32974 ft 500 kts 68°
2026-05-05 01:02 41.08191 -70.89252 32974 ft 501 kts 68°
2026-05-05 01:03 41.10267 -70.80427 32978 ft 502 kts 68°
2026-05-05 01:03 41.12344 -70.71555 32974 ft 503 kts 69°
2026-05-05 01:04 41.14411 -70.62698 32975 ft 504 kts 69°
2026-05-05 01:04 41.17525 -70.49296 32981 ft 506 kts 69°
2026-05-05 01:05 41.19586 -70.40370 33000 ft 506 kts 69°
2026-05-05 01:05 41.21634 -70.31472 32987 ft 507 kts 69°
2026-05-05 01:06 41.23686 -70.22513 32994 ft 507 kts 69°
2026-05-05 01:06 41.25735 -70.13545 32998 ft 506 kts 69°
2026-05-05 01:07 41.27774 -70.04596 32999 ft 506 kts 69°
2026-05-05 01:07 41.30273 -69.95910 32996 ft 501 kts 63°
2026-05-05 01:08 41.33043 -69.87392 33005 ft 503 kts 62°
2026-05-05 01:08 41.35806 -69.78826 33001 ft 504 kts 63°
2026-05-05 01:09 41.38548 -69.70212 32996 ft 506 kts 63°
2026-05-05 01:09 41.41277 -69.61564 32979 ft 506 kts 63°
2026-05-05 01:10 41.43999 -69.52912 32993 ft 507 kts 63°
2026-05-05 01:10 41.46702 -69.44299 32996 ft 507 kts 63°
2026-05-05 01:11 41.49417 -69.35617 32987 ft 508 kts 63°
2026-05-05 01:11 41.52134 -69.26899 32980 ft 509 kts 64°
2026-05-05 01:12 41.54850 -69.18163 32983 ft 510 kts 64°
2026-05-05 01:12 41.57568 -69.09406 32980 ft 511 kts 64°
2026-05-05 01:13 41.60278 -69.00622 32979 ft 512 kts 64°
2026-05-05 01:13 41.62532 -68.93298 32980 ft 513 kts 64°
2026-05-05 01:14 41.65245 -68.84450 32981 ft 515 kts 65°
2026-05-05 01:14 41.67955 -68.75581 32986 ft 516 kts 65°
2026-05-05 01:15 41.70669 -68.66678 32984 ft 517 kts 65°
2026-05-05 01:15 41.73381 -68.57762 32966 ft 518 kts 65°
2026-05-05 01:16 41.76088 -68.48817 32962 ft 518 kts 65°
2026-05-05 01:16 41.78790 -68.39866 32963 ft 518 kts 65°
2026-05-05 01:17 41.81482 -68.30910 32962 ft 518 kts 65°
2026-05-05 01:17 41.84168 -68.21953 32961 ft 518 kts 66°
2026-05-05 01:18 41.86848 -68.12981 32963 ft 517 kts 66°
2026-05-05 01:18 41.89509 -68.04020 32961 ft 517 kts 66°
2026-05-05 01:19 41.92168 -67.95057 32963 ft 516 kts 66°
2026-05-05 01:19 41.94820 -67.86095 32964 ft 516 kts 66°
2026-05-05 01:20 41.97461 -67.77130 32956 ft 516 kts 66°
2026-05-05 01:20 42.00097 -67.68154 32947 ft 517 kts 66°
2026-05-05 01:21 42.02733 -67.59141 32936 ft 519 kts 66°
2026-05-05 01:21 42.11533 -67.28820 32926 ft 521 kts 66°
2026-05-05 01:22 42.22071 -66.92264 32908 ft 525 kts 66°
2026-05-05 01:22 42.33061 -66.55551 32922 ft 530 kts 67°
2026-05-05 01:23 42.44001 -66.18268 32923 ft 535 kts 68°
2026-05-05 01:23 42.54909 -65.80546 32879 ft 539 kts 68°
2026-05-05 01:24 42.65755 -65.42471 32913 ft 542 kts 68°
2026-05-05 01:24 42.76542 -65.04030 32924 ft 545 kts 69°
2026-05-05 01:25 42.87284 -64.65145 32843 ft 551 kts 69°
2026-05-05 01:25 42.97978 -64.25823 32884 ft 554 kts 70°
2026-05-05 01:26 43.08574 -63.86219 33008 ft 554 kts 71°
2026-05-05 01:26 43.19118 -63.46150 32941 ft 562 kts 71°
2026-05-05 01:27 43.29544 -63.05857 32776 ft 569 kts 71°
2026-05-05 01:27 43.39984 -62.64803 32831 ft 569 kts 72°
2026-05-05 01:28 43.50293 -62.23555 32833 ft 570 kts 72°
2026-05-05 01:28 43.60431 -61.82254 32867 ft 568 kts 73°
2026-05-05 01:29 43.70415 -61.40830 32906 ft 570 kts 73°
2026-05-05 01:29 43.80295 -60.99078 32920 ft 572 kts 74°
2026-05-05 01:30 43.90085 -60.56911 32940 ft 577 kts 75°
2026-05-05 01:30 43.99794 -60.14279 32953 ft 581 kts 75°
2026-05-05 01:31 44.09399 -59.71257 32944 ft 583 kts 75°
2026-05-05 01:31 44.18848 -59.28073 32927 ft 582 kts 75°
2026-05-05 01:32 44.28137 -58.84726 32910 ft 583 kts 76°
2026-05-05 01:32 44.37294 -58.41101 32879 ft 588 kts 77°
2026-05-05 01:33 44.46456 -57.96476 33112 ft 608 kts 77°
2026-05-05 01:33 44.51115 -57.73424 32772 ft 619 kts 77°
2026-05-05 01:33 44.55679 -57.50581 32866 ft 596 kts 77°
2026-05-05 01:34 44.60005 -57.28657 32714 ft 587 kts 77°
2026-05-05 01:34 44.64352 -57.06364 33019 ft 586 kts 77°
2026-05-05 01:34 44.68613 -56.84259 32923 ft 604 kts 77°
2026-05-05 01:34 44.72994 -56.61300 32692 ft 607 kts 77°
2026-05-05 01:35 44.77279 -56.38572 32705 ft 594 kts 77°
2026-05-05 01:35 44.81444 -56.16181 32810 ft 591 kts 77°
2026-05-05 01:35 44.85586 -55.93651 32924 ft 599 kts 77°
2026-05-05 01:35 44.89778 -55.70571 32751 ft 611 kts 78°
2026-05-05 01:36 44.93923 -55.47486 32739 ft 600 kts 78°
2026-05-05 01:36 44.97931 -55.24862 32648 ft 589 kts 78°
2026-05-05 01:36 45.01833 -55.02548 32963 ft 581 kts 78°
2026-05-05 01:36 45.05714 -54.80060 32955 ft 599 kts 78°
2026-05-05 01:37 45.09654 -54.56962 32779 ft 605 kts 78°
2026-05-05 01:37 45.13532 -54.33945 32454 ft 594 kts 78°
2026-05-05 01:37 45.17265 -54.11463 32279 ft 577 kts 78°
2026-05-05 01:37 45.20857 -53.89543 32783 ft 569 kts 79°
2026-05-05 01:38 45.24452 -53.67287 32827 ft 591 kts 79°
2026-05-05 01:38 45.28136 -53.44228 32690 ft 599 kts 79°
2026-05-05 01:38 45.31742 -53.21332 32655 ft 588 kts 79°
2026-05-05 01:38 45.35228 -52.98878 32682 ft 579 kts 79°
2026-05-05 01:39 45.42104 -52.53612 32784 ft 593 kts 80°
2026-05-05 01:39 45.48841 -52.08004 32730 ft 576 kts 81°
2026-05-05 01:40 45.53439 -51.86295 32688 ft 573 kts 69°
2026-05-05 01:40 45.59100 -51.64927 32790 ft 577 kts 70°
2026-05-05 01:40 45.64645 -51.43213 32787 ft 588 kts 70°
2026-05-05 01:40 45.70242 -51.21124 32797 ft 592 kts 70°
2026-05-05 01:41 45.81193 -50.77311 32761 ft 580 kts 71°
2026-05-05 01:41 45.91843 -50.33859 32939 ft 580 kts 71°
2026-05-05 01:42 46.02528 -49.89741 32592 ft 580 kts 71°
2026-05-05 01:42 46.07973 -49.68191 32643 ft 564 kts 71°
2026-05-05 01:42 46.13246 -49.46924 32814 ft 563 kts 71°
2026-05-05 01:43 46.18524 -49.25393 32709 ft 577 kts 72°
2026-05-05 01:43 46.23852 -49.03472 32692 ft 578 kts 72°
2026-05-05 01:43 46.34232 -48.60128 32756 ft 562 kts 73°
2026-05-05 01:44 46.44494 -48.16402 32907 ft 586 kts 73°
2026-05-05 01:44 46.49724 -47.93794 32733 ft 593 kts 73°
2026-05-05 01:44 46.54875 -47.71293 32745 ft 579 kts 74°
2026-05-05 01:45 46.59848 -47.49338 32609 ft 565 kts 75°
2026-05-05 01:45 46.64682 -47.27766 32715 ft 558 kts 75°
2026-05-05 01:45 46.69470 -47.06162 32850 ft 565 kts 75°
2026-05-05 01:45 46.74289 -46.84221 32831 ft 570 kts 76°
2026-05-05 01:46 46.83726 -46.40583 32680 ft 554 kts 76°
2026-05-05 01:46 46.92753 -45.97905 32845 ft 554 kts 77°
2026-05-05 01:47 46.97272 -45.76216 32995 ft 558 kts 78°
2026-05-05 01:47 47.01758 -45.54462 32705 ft 555 kts 78°
2026-05-05 01:47 47.06111 -45.33135 32775 ft 537 kts 78°
2026-05-05 01:47 47.10317 -45.12262 32966 ft 535 kts 79°
2026-05-05 01:48 47.18778 -44.69611 32859 ft 548 kts 79°
2026-05-05 01:48 47.22896 -44.48548 32736 ft 537 kts 79°
2026-05-05 01:48 47.26919 -44.27728 32715 ft 524 kts 80°
2026-05-05 01:49 47.30849 -44.07120 32844 ft 524 kts 80°
2026-05-05 01:49 47.34779 -43.86294 32874 ft 531 kts 80°
2026-05-05 01:49 47.38725 -43.65187 32661 ft 532 kts 80°
2026-05-05 01:49 47.42568 -43.44430 32687 ft 519 kts 81°
2026-05-05 01:50 47.50027 -43.03304 32912 ft 523 kts 81°
2026-05-05 01:50 47.57528 -42.61085 32867 ft 527 kts 80°
2026-05-05 01:51 47.61166 -42.40241 32789 ft 516 kts 81°
2026-05-05 01:51 47.64694 -42.19747 32874 ft 511 kts 81°
2026-05-05 01:51 47.71734 -41.78144 32877 ft 528 kts 81°
2026-05-05 01:52 47.78670 -41.36215 32925 ft 514 kts 81°
2026-05-05 01:52 47.85338 -40.94814 32929 ft 520 kts 80°
2026-05-05 01:53 47.88647 -40.73882 32706 ft 531 kts 80°
2026-05-05 01:53 47.91974 -40.52610 32851 ft 523 kts 80°
2026-05-05 01:53 47.98365 -40.10859 32943 ft 515 kts 80°
2026-05-05 01:54 48.02379 -39.90017 32835 ft 527 kts 71°
2026-05-05 01:54 48.07635 -39.69561 32932 ft 528 kts 71°
2026-05-05 01:54 48.17824 -39.28346 32953 ft 518 kts 71°
2026-05-05 01:55 48.27603 -38.88025 33192 ft 516 kts 71°
2026-05-05 01:55 48.32517 -38.67484 33020 ft 526 kts 70°
2026-05-05 01:55 48.37417 -38.46810 32977 ft 523 kts 70°
2026-05-05 01:56 48.42224 -38.26334 32876 ft 515 kts 70°
2026-05-05 01:56 48.46918 -38.06151 32996 ft 510 kts 70°
2026-05-05 01:56 48.51593 -37.85857 33115 ft 517 kts 70°
2026-05-05 01:56 48.56341 -37.65052 33083 ft 527 kts 70°
2026-05-05 01:57 48.65655 -37.23609 33030 ft 513 kts 70°
2026-05-05 01:57 48.74624 -36.82958 33124 ft 519 kts 69°
2026-05-05 01:58 48.83725 -36.40833 33022 ft 524 kts 69°
2026-05-05 01:58 48.88150 -36.20036 33131 ft 513 kts 69°
2026-05-05 01:58 48.92503 -35.99380 33142 ft 513 kts 69°
2026-05-05 01:59 49.01226 -35.57330 33060 ft 528 kts 69°
2026-05-05 01:59 49.08491 -35.21583 32948 ft 519 kts 69°
2026-05-05 02:00 49.12669 -35.00749 33226 ft 513 kts 68°
2026-05-05 02:00 49.16840 -34.79748 33345 ft 524 kts 68°
2026-05-05 02:00 49.25229 -34.36716 33059 ft 531 kts 68°
2026-05-05 02:01 49.29341 -34.15250 32957 ft 517 kts 68°
2026-05-05 02:01 49.33325 -33.94263 33247 ft 515 kts 68°
2026-05-05 02:01 49.37343 -33.72892 33309 ft 531 kts 68°
2026-05-05 02:01 49.41429 -33.50817 33142 ft 534 kts 68°
2026-05-05 02:02 49.45402 -33.29072 33024 ft 523 kts 68°
2026-05-05 02:02 49.49261 -33.07757 33207 ft 515 kts 67°
2026-05-05 02:02 49.56962 -32.64499 33247 ft 531 kts 67°
2026-05-05 02:03 49.64504 -32.20971 33188 ft 519 kts 66°
2026-05-05 02:03 49.71819 -31.77810 33125 ft 526 kts 66°
2026-05-05 02:04 49.85822 -30.92476 33275 ft 526 kts 68°
2026-05-05 02:04 50.04372 -29.74186 34003 ft 534 kts 69°
2026-05-05 02:04 50.20636 -28.57128 34507 ft 469 kts 71°
2026-05-05 02:05 50.28716 -27.96551 25935 ft 520 kts 68°
2026-05-05 02:06 50.49753 -27.47477 23817 ft 483 kts 44°
2026-05-05 02:06 50.52378 -27.43241 24098 ft 490 kts 44°
2026-05-05 02:06 50.54750 -27.39368 24356 ft 494 kts 45°
2026-05-05 02:06 50.57039 -27.35328 24613 ft 497 kts 51°
2026-05-05 02:07 50.58980 -27.30816 24876 ft 500 kts 59°
2026-05-05 02:07 50.62288 -27.19107 25516 ft 503 kts 70°
2026-05-05 02:07 50.66782 -26.98097 26557 ft 507 kts 70°
2026-05-05 02:07 50.71498 -26.76976 27519 ft 514 kts 70°
2026-05-05 02:08 50.76290 -26.55604 28585 ft 517 kts 70°
2026-05-05 02:08 50.81042 -26.34124 29509 ft 518 kts 70°
2026-05-05 02:08 50.85719 -26.12750 30402 ft 510 kts 70°
2026-05-05 02:08 50.90284 -25.91686 31371 ft 502 kts 70°
2026-05-05 02:09 50.94774 -25.70745 32427 ft 502 kts 70°
2026-05-05 02:09 50.99255 -25.49638 33236 ft 509 kts 70°
2026-05-05 02:09 51.03782 -25.28088 33511 ft 520 kts 70°
2026-05-05 02:09 51.08318 -25.06251 33472 ft 514 kts 71°
2026-05-05 02:10 51.12705 -24.84901 33301 ft 502 kts 71°
2026-05-05 02:10 51.16919 -24.64173 33349 ft 495 kts 71°
2026-05-05 02:10 51.25429 -24.21655 33375 ft 512 kts 71°
2026-05-05 02:11 51.33856 -23.78591 33208 ft 496 kts 71°
2026-05-05 02:11 51.37879 -23.57694 33352 ft 490 kts 71°
2026-05-05 02:11 51.41896 -23.36594 33383 ft 501 kts 72°
2026-05-05 02:12 51.53871 -22.72217 33264 ft 492 kts 72°
2026-05-05 02:13 51.61531 -22.29847 33356 ft 500 kts 72°
2026-05-05 02:13 51.65389 -22.08114 33235 ft 506 kts 72°
2026-05-05 02:13 51.69186 -21.86455 33213 ft 497 kts 72°
2026-05-05 02:14 51.76515 -21.43914 33204 ft 493 kts 72°
2026-05-05 02:14 51.83796 -21.00587 33203 ft 503 kts 73°
2026-05-05 02:15 51.90800 -20.57842 33115 ft 487 kts 73°
2026-05-05 02:15 51.97641 -20.15036 33243 ft 498 kts 73°
2026-05-05 02:15 52.00276 -19.92816 33150 ft 508 kts 86°
2026-05-05 02:16 52.00603 -19.70078 33091 ft 499 kts 86°
2026-05-05 02:16 52.01336 -19.25494 33231 ft 497 kts 86°
2026-05-05 02:16 52.01654 -19.02800 33515 ft 508 kts 87°
2026-05-05 02:17 52.01924 -18.80070 34807 ft 505 kts 87°
2026-05-05 02:17 52.02155 -18.57107 35210 ft 508 kts 87°
2026-05-05 02:17 52.02339 -18.34313 35179 ft 501 kts 88°
2026-05-05 02:17 52.02477 -18.11937 35113 ft 489 kts 88°
2026-05-05 02:18 52.02545 -17.97341 35081 ft 486 kts 88°
2026-05-05 02:18 52.02642 -17.45726 35294 ft 498 kts 88°
2026-05-05 02:18 52.02612 -17.23055 35096 ft 504 kts 89°
2026-05-05 02:19 52.02537 -17.00498 35088 ft 493 kts 89°
2026-05-05 02:19 52.02326 -16.63629 35150 ft 486 kts 89°
2026-05-05 02:20 52.01919 -16.19085 35061 ft 501 kts 89°
2026-05-05 02:20 52.01341 -15.74644 35092 ft 483 kts 89°
2026-05-05 02:21 52.00608 -15.30625 35132 ft 496 kts 90°
2026-05-05 02:21 51.99965 -14.85562 35119 ft 494 kts 88°
2026-05-05 02:22 52.00102 -14.41777 34973 ft 486 kts 89°
2026-05-05 02:22 52.00067 -14.19744 35099 ft 490 kts 89°
2026-05-05 02:22 51.99994 -13.97400 35115 ft 500 kts 89°
2026-05-05 02:23 52.00011 -13.52294 35104 ft 494 kts 89°
2026-05-05 02:23 51.99851 -13.08406 35158 ft 482 kts 89°
2026-05-05 02:24 51.99528 -12.64285 35210 ft 494 kts 89°
2026-05-05 02:24 51.99033 -12.19889 35043 ft 484 kts 89°
2026-05-05 02:25 51.98394 -11.76669 35079 ft 481 kts 90°
2026-05-05 02:25 51.98012 -11.54851 35190 ft 488 kts 90°
2026-05-05 02:25 51.97582 -11.32683 35097 ft 494 kts 90°
2026-05-05 02:25 51.97107 -11.10568 34963 ft 485 kts 90°
2026-05-05 02:26 51.96607 -10.89051 35004 ft 471 kts 90°
2026-05-05 02:26 51.96083 -10.68020 35309 ft 466 kts 90°
2026-05-05 02:26 51.95517 -10.46727 35376 ft 478 kts 90°
2026-05-05 02:27 51.94230 -10.03222 35115 ft 479 kts 90°
2026-05-05 02:27 51.92822 -9.60828 34975 ft 466 kts 91°
2026-05-05 02:27 51.92070 -9.39796 35101 ft 471 kts 91°
2026-05-05 02:28 51.91263 -9.18383 35137 ft 480 kts 91°
2026-05-05 02:28 51.89520 -8.75406 34959 ft 465 kts 91°
2026-05-05 02:29 51.87705 -8.34109 35234 ft 464 kts 91°
2026-05-05 02:29 51.86731 -8.13257 35159 ft 478 kts 92°
2026-05-05 02:29 51.85686 -7.91789 35133 ft 472 kts 92°
2026-05-05 02:30 51.83553 -7.50153 35127 ft 459 kts 92°
2026-05-05 02:30 51.82443 -7.29539 35263 ft 464 kts 92°
2026-05-05 02:30 51.81273 -7.08516 35278 ft 477 kts 93°
2026-05-05 02:30 51.80042 -6.87146 35131 ft 475 kts 93°
2026-05-05 02:31 51.78803 -6.66268 35063 ft 460 kts 93°
2026-05-05 02:31 51.75410 -6.25657 35101 ft 460 kts 96°
2026-05-05 02:32 51.71507 -5.84372 35126 ft 470 kts 96°
2026-05-05 02:32 51.69483 -5.63551 34917 ft 466 kts 97°
2026-05-05 02:32 51.67468 -5.43205 34794 ft 454 kts 97°
2026-05-05 02:32 51.65456 -5.23217 34978 ft 453 kts 97°
2026-05-05 02:33 51.63373 -5.02889 35050 ft 468 kts 98°
2026-05-05 02:33 51.58961 -4.61026 34915 ft 471 kts 99°
2026-05-05 02:34 51.54526 -4.20335 35039 ft 460 kts 99°
2026-05-05 02:34 51.52278 -4.00137 35028 ft 473 kts 99°
2026-05-05 02:34 51.49894 -3.79178 35072 ft 478 kts 100°
2026-05-05 02:34 51.47597 -3.58191 34953 ft 475 kts 95°
2026-05-05 02:35 51.46423 -3.37258 34913 ft 466 kts 95°
2026-05-05 02:35 51.45201 -3.16673 35040 ft 464 kts 96°
2026-05-05 02:35 51.43908 -2.95880 35136 ft 473 kts 96°
2026-05-05 02:36 51.41143 -2.53178 34951 ft 480 kts 96°
2026-05-05 02:36 51.39722 -2.32144 34900 ft 469 kts 97°
2026-05-05 02:36 51.38293 -2.11528 35086 ft 467 kts 97°
2026-05-05 02:36 51.36812 -1.90719 35379 ft 474 kts 97°
2026-05-05 02:37 51.35251 -1.69374 35152 ft 489 kts 97°
2026-05-05 02:37 51.33643 -1.47830 35017 ft 484 kts 97°
2026-05-05 02:37 51.32039 -1.26658 34798 ft 474 kts 98°
2026-05-05 02:37 51.30650 -1.05947 34903 ft 466 kts 95°
2026-05-05 02:38 51.29704 -0.85237 35156 ft 473 kts 96°
2026-05-05 02:38 51.28589 -0.63819 34905 ft 491 kts 96°
2026-05-05 02:38 51.27417 -0.42145 34794 ft 486 kts 96°
2026-05-05 02:38 51.26232 -0.20945 34677 ft 474 kts 97°
2026-05-05 02:39 51.25033 -0.00141 34911 ft 466 kts 97°
2026-05-05 02:39 51.23831 0.20547 35131 ft 477 kts 97°
2026-05-05 02:39 51.22531 0.42047 35136 ft 495 kts 97°
2026-05-05 02:39 51.21143 0.64057 34887 ft 501 kts 97°
2026-05-05 02:40 51.19716 0.85897 34741 ft 488 kts 97°
2026-05-05 02:40 51.18298 1.07054 34952 ft 475 kts 98°
2026-05-05 02:40 51.16847 1.28092 35223 ft 483 kts 98°
2026-05-05 02:40 51.15563 1.49870 35110 ft 502 kts 96°
2026-05-05 02:41 51.14545 1.72010 35029 ft 498 kts 96°
2026-05-05 02:41 51.13426 1.93786 34978 ft 487 kts 96°
2026-05-05 02:41 51.12294 2.15164 35007 ft 485 kts 97°
2026-05-05 02:42 51.09877 2.58676 35133 ft 503 kts 97°
2026-05-05 02:42 51.06856 2.80270 34918 ft 499 kts 109°
2026-05-05 02:42 51.02936 3.01265 34692 ft 490 kts 109°
2026-05-05 02:43 50.95373 3.42084 35102 ft 481 kts 109°
2026-05-05 02:43 50.91477 3.62758 35248 ft 499 kts 109°
2026-05-05 02:43 50.87356 3.84102 34834 ft 508 kts 110°
2026-05-05 02:43 50.84651 3.97972 34682 ft 498 kts 110°
2026-05-05 02:44 50.83652 4.03078 34765 ft 489 kts 110°
2026-05-05 02:44 50.81629 4.13354 34885 ft 490 kts 111°
2026-05-05 02:45 50.79585 4.23683 34927 ft 494 kts 111°
2026-05-05 02:45 50.77519 4.34075 34945 ft 497 kts 111°
2026-05-05 02:46 50.75434 4.44505 34936 ft 498 kts 111°
2026-05-05 02:46 50.73335 4.54965 34471 ft 505 kts 111°
2026-05-05 02:46 50.72283 4.60190 33598 ft 490 kts 111°
2026-05-05 02:47 50.71292 4.65221 32775 ft 472 kts 111°
2026-05-05 02:47 50.70338 4.70161 31956 ft 472 kts 111°
2026-05-05 02:47 50.69370 4.75164 31078 ft 481 kts 111°
2026-05-05 02:47 50.68378 4.80269 30317 ft 491 kts 111°
2026-05-05 02:48 50.67367 4.85441 29669 ft 495 kts 111°
2026-05-05 02:48 50.66205 4.90480 29003 ft 484 kts 120°
2026-05-05 02:48 50.64327 4.94773 28332 ft 469 kts 139°
2026-05-05 02:48 50.61966 4.98178 27728 ft 457 kts 142°
2026-05-05 02:49 50.59647 5.01568 27124 ft 454 kts 140°
2026-05-05 02:49 50.57380 5.05009 26512 ft 451 kts 139°
2026-05-05 02:49 50.55177 5.08410 25919 ft 448 kts 139°
2026-05-05 02:49 50.52970 5.11841 25311 ft 445 kts 139°
2026-05-05 02:50 50.50771 5.15257 24716 ft 442 kts 139°
2026-05-05 02:50 50.48592 5.18628 24121 ft 439 kts 139°
2026-05-05 02:50 50.46422 5.21976 23532 ft 436 kts 139°
2026-05-05 02:50 50.44262 5.25298 22967 ft 433 kts 139°
2026-05-05 02:51 50.42116 5.28592 22403 ft 430 kts 139°
2026-05-05 02:51 50.39980 5.31863 21828 ft 427 kts 139°
2026-05-05 02:51 50.37863 5.35103 21272 ft 424 kts 139°
2026-05-05 02:51 50.35758 5.38320 20721 ft 421 kts 139°
2026-05-05 02:52 50.33673 5.41503 20178 ft 418 kts 139°
2026-05-05 02:52 50.31600 5.44664 19633 ft 414 kts 139°
2026-05-05 02:52 50.29540 5.47798 19091 ft 411 kts 139°
2026-05-05 02:52 50.27497 5.50906 18564 ft 408 kts 139°
2026-05-05 02:53 50.25473 5.53980 18004 ft 404 kts 139°
2026-05-05 02:53 50.23465 5.57025 17484 ft 401 kts 139°
2026-05-05 02:53 50.21471 5.60047 16946 ft 397 kts 139°
2026-05-05 02:53 50.19525 5.62992 16437 ft 394 kts 139°
2026-05-05 02:54 50.17565 5.65952 15915 ft 390 kts 139°
2026-05-05 02:54 50.15622 5.68885 15396 ft 387 kts 139°
2026-05-05 02:54 50.13698 5.71785 14884 ft 383 kts 139°
2026-05-05 02:54 50.11789 5.74662 14376 ft 380 kts 139°
2026-05-05 02:55 50.09895 5.77512 13861 ft 376 kts 139°
2026-05-05 02:55 50.08025 5.80321 13361 ft 372 kts 139°
2026-05-05 02:55 50.06176 5.83095 12862 ft 367 kts 139°
2026-05-05 02:55 50.04212 5.85411 12506 ft 338 kts 155°
2026-05-05 02:56 50.02117 5.86582 12284 ft 304 kts 168°
2026-05-05 02:56 50.00123 5.87140 11918 ft 281 kts 175°
2026-05-05 02:56 49.98216 5.87342 11322 ft 270 kts 178°
2026-05-05 02:56 49.96360 5.87463 10599 ft 265 kts 179°
2026-05-05 02:57 49.94541 5.87568 10126 ft 249 kts 179°
2026-05-05 02:57 49.92868 5.87665 10081 ft 245 kts 179°
2026-05-05 02:57 49.91086 5.87770 10013 ft 265 kts 179°
2026-05-05 02:57 49.89220 5.87886 9772 ft 272 kts 179°
2026-05-05 02:58 49.87320 5.88007 9463 ft 273 kts 178°
2026-05-05 02:58 49.85437 5.88128 9140 ft 269 kts 178°
2026-05-05 02:58 49.83584 5.88269 8818 ft 262 kts 174°
2026-05-05 02:58 49.81891 5.89238 8302 ft 267 kts 142°
2026-05-05 02:59 49.80814 5.91574 7911 ft 270 kts 114°
2026-05-05 02:59 49.80245 5.94343 7562 ft 270 kts 108°
2026-05-05 02:59 49.79762 5.97144 7234 ft 269 kts 107°
2026-05-05 02:59 49.79301 5.99896 6899 ft 267 kts 107°
2026-05-05 03:00 49.78855 6.02643 6793 ft 256 kts 103°
2026-05-05 03:00 49.78964 6.05377 6777 ft 265 kts 69°
2026-05-05 03:00 49.80096 6.07690 6816 ft 277 kts 43°
2026-05-05 03:00 49.81342 6.09946 6802 ft 277 kts 69°
2026-05-05 03:01 49.81702 6.12830 6822 ft 271 kts 89°
2026-05-05 03:01 49.81915 6.15753 6833 ft 277 kts 81°
2026-05-05 03:01 49.82366 6.18668 6832 ft 277 kts 77°
2026-05-05 03:01 49.82883 6.21519 6815 ft 270 kts 81°
2026-05-05 03:02 49.82874 6.24373 6689 ft 269 kts 107°
2026-05-05 03:02 49.82167 6.27043 6387 ft 269 kts 117°
2026-05-05 03:02 49.81387 6.29699 6064 ft 271 kts 116°
2026-05-05 03:02 49.80635 6.32352 5738 ft 266 kts 116°
2026-05-05 03:03 49.79897 6.34954 5444 ft 262 kts 115°
2026-05-05 03:03 49.79160 6.37504 5135 ft 254 kts 120°
2026-05-05 03:03 49.78036 6.39513 4853 ft 247 kts 149°
2026-05-05 03:03 49.76530 6.40809 4661 ft 251 kts 152°
2026-05-05 03:04 49.75530 6.41680 4605 ft 246 kts 151°
2026-05-05 03:04 49.73601 6.43298 4417 ft 228 kts 162°
2026-05-05 03:04 49.72075 6.43455 4138 ft 218 kts 197°
2026-05-05 03:04 49.70858 6.42255 3959 ft 203 kts 229°
2026-05-05 03:05 49.70044 6.40586 3742 ft 190 kts 232°
2026-05-05 03:05 49.69518 6.39485 3555 ft 187 kts 234°
2026-05-05 03:05 49.68834 6.37834 3295 ft 174 kts 238°
2026-05-05 03:05 49.68262 6.36311 3062 ft 159 kts 239°
2026-05-05 03:06 49.67724 6.34855 2852 ft 151 kts 239°
2026-05-05 03:06 49.67201 6.33443 2677 ft 152 kts 239°
2026-05-05 03:06 49.66683 6.32046 2469 ft 152 kts 239°
2026-05-05 03:06 49.66161 6.30632 2267 ft 151 kts 239°
2026-05-05 03:07 49.65642 6.29231 2080 ft 151 kts 239°
2026-05-05 03:07 49.65120 6.27825 1871 ft 151 kts 239°
2026-05-05 03:07 49.64603 6.26426 1678 ft 149 kts 239°
2026-05-05 03:07 49.64090 6.25045 1464 ft 148 kts 239°
2026-05-05 03:08 49.63582 6.23668 1287 ft 149 kts 240°
2026-05-05 03:08 49.63084 6.22331 1227 ft 132 kts 240°
2026-05-05 03:08 49.62704 6.21307 1222 ft 83 kts 240°
2026-05-05 03:08 49.62643 6.20917 1214 ft 23 kts 274°
2026-05-05 03:09 49.62703 6.20751 1203 ft 20 kts 339°
2026-05-05 03:09 49.62825 6.20832 1201 ft 20 kts 54°
2026-05-05 03:09 49.62891 6.21027 1201 ft 20 kts 64°
2026-05-05 03:09 49.62952 6.21225 1201 ft 21 kts 65°
2026-05-05 03:10 49.62969 6.21283 1201 ft 1 kts 65°
2026-05-05 03:10 49.63048 6.21307 1200 ft 23 kts 349°
2026-05-05 03:10 49.63061 6.21303 1200 ft 0 kts 349°
2026-05-05 03:11 49.63664 6.22580 1200 ft 0 kts 242°